Погода в Колопине

Россия / Республика Мордовия     54°21′31″N   44°09′04″E
темп.,
°C
ветер,
м/с
пор.,
м/с
влажн.,
%
обл.,
%
осадки,
мм/ч
давл.,
гПа
погр.,
м
26 июля, пн
пн2600:00+13зюз12725 0.0 102310
03:00+12з127664 0.0 102310
06:00+15з127015 0.0 102443
09:00+17з2263100 0.0 1024217
12:00+22зюз234146 0.0 10241026
15:00+22з354311 0.0 10231127
18:00+23з235275 0.0 1022207
21:00+17зюз22624 0.0 102220
27 июля, вт
вт2700:00+15юз22691 0.0 102213
03:00+14зюз22726 0.0 102213
06:00+16зюз246895 0.0 1021105
09:00+23з345016 0.0 1021538
12:00+26зсз45393 0.0 10202246
15:00+25зсз354344 0.0 10191118
18:00+24з235118 0.0 101783
21:00+18ссз116427 0.0 101811
28 июля, ср
ср2800:00+17зсз226117 0.0 101812
03:00+15з11785 0.2 101711
06:00+17зсз138028 0.0 101796
09:00+22сз22555 0.0 1017546
12:00+26зсз23425 0.0 10161630
15:00+27з343891 0.0 10142192
18:00+26ююз135121 0.0 1013167
21:00+21юз236098 0.1 101357
29 июля, чт
чт2900:00+18з2279100 0.1 101319
03:00+18ююз3681100 0.2 1012127
06:00+18ю3983100 0.1 1010254
09:00+22ю61066100 0.1 1008577
12:00+27зюз7114894 0.0 10062099
15:00+26з7116026 0.7 10051197
18:00+24зсз6106664 0.3 10051024
21:00+19з2285100 0.3 100626
30 июля, пт
пт3000:00+18зюз359285 0.0 100783
03:00+17зюз3595100 0.0 100797
06:00+19зюз2684100 0.0 1007182
09:00+25зюз355671 0.0 1007723
12:00+28зюз564437 0.0 10072109
15:00+28зюз454574 0.0 10061216
18:00+23ююз477141 0.2 1007257
21:00+20юз228248 0.2 100734